This demonstration page uses our WeatherBlox Daily Observations layout. Learn more.

Left ArrowRight Arrow

44.31136, -96.79839

Hourly Observations for July 17, 2015

Temp ( °F °C ) Dew Point ( °F °C ) Humidity (%) Winds ( mph kmh ) Pressure ( in mb ) Visibility ( mi km ) Precip ( " mm )
12:15 am 00:15 Clear 66 19 61 16 83 83 SSW 6 9 29.68 1005 10 16 0.00 0.00
12:35 am 00:35 Clear 66 19 61 16 83 83 SSW 5 7 29.68 1005 10 16 0.00 0.00
12:55 am 00:55 Clear 66 19 61 16 83 83 SSE 5 7 29.68 1005 10 16 0.00 0.00
1:15 am 01:15 Clear 66 19 61 16 83 83 Calm 29.68 1005 10 16 0.00 0.00
1:35 am 01:35 Clear 66 19 61 16 83 83 S 5 7 29.68 1005 10 16 0.00 0.00
1:55 am 01:55 Clear 66 19 61 16 83 83 SSE 3 6 29.68 1005 10 16 0.00 0.00
2:15 am 02:15 Clear 66 19 63 17 88 88 SSE 3 6 29.68 1005 10 16 0.00 0.00
2:35 am 02:35 Clear 66 19 63 17 88 88 Calm 29.68 1005 10 16 0.00 0.00
2:55 am 02:55 Clear 66 19 63 17 88 88 Calm 29.68 1005 10 16 0.00 0.00
3:15 am 03:15 Clear 66 19 63 17 88 88 Calm 29.68 1005 10 16 0.00 0.00
3:35 am 03:35 Clear 66 19 63 17 88 88 Calm 29.68 1005 10 16 0.00 0.00
3:55 am 03:55 Clear 64 18 61 16 88 88 Calm 29.68 1005 10 16 0.00 0.00
4:15 am 04:15 Clear 64 18 61 16 88 88 NE 3 6 29.68 1005 10 16 0.00 0.00
4:35 am 04:35 Clear 63 17 59 15 88 88 NE 3 6 29.68 1005 10 16 0.00 0.00
4:55 am 04:55 Clear 63 17 59 15 88 88 Calm 29.71 1006 10 16 0.00 0.00
5:15 am 05:15 Clear 63 17 59 15 88 88 E 3 6 29.71 1006 10 16 0.00 0.00
5:35 am 05:35 Clear 64 18 61 16 88 88 SE 3 6 29.71 1006 10 16 0.00 0.00
5:55 am 05:55 Clear 63 17 61 16 94 94 Calm 29.71 1006 10 16 0.00 0.00
6:15 am 06:15 Sunny 63 17 57 14 83 83 NNE 3 6 29.71 1006 10 16 0.00 0.00
6:35 am 06:35 Sunny 63 17 59 15 88 88 Calm 29.71 1006 10 16 0.00 0.00
6:55 am 06:55 Sunny 64 18 61 16 88 88 Calm 29.71 1006 10 16 0.00 0.00
7:15 am 07:15 Sunny 66 19 63 17 88 88 Calm 29.71 1006 10 16 0.00 0.00
7:35 am 07:35 Sunny 68 20 63 17 83 83 SSE 3 6 29.71 1006 10 16 0.00 0.00
7:55 am 07:55 Sunny 70 21 64 18 83 83 E 3 6 29.71 1006 10 16 0.00 0.00
8:15 am 08:15 Sunny 72 22 64 18 78 78 SE 3 6 29.68 1005 10 16 0.00 0.00
8:35 am 08:35 Sunny 72 22 66 19 83 83 SE 3 6 29.68 1005 10 16 0.00 0.00
8:55 am 08:55 Sunny 73 23 66 19 78 78 Calm 29.68 1005 10 16 0.00 0.00
9:15 am 09:15 Sunny 75 24 68 20 78 78 SE 5 7 29.68 1005 10 16 0.00 0.00
9:35 am 09:35 Sunny 75 24 68 20 78 78 SE 6 9 29.68 1005 10 16 0.00 0.00
9:55 am 09:55 Sunny 79 26 70 21 74 74 SSE 7 11 29.68 1005 10 16 0.00 0.00
10:15 am 10:15 Sunny 79 26 70 21 74 74 SSE 6 9 29.68 1005 10 16 0.00 0.00
10:35 am 10:35 Sunny 81 27 70 21 70 70 S 6 9 29.68 1005 10 16 0.00 0.00
10:55 am 10:55 Sunny 82 28 70 21 66 66 SSE 5 7 29.65 1004 10 16 0.00 0.00
11:15 am 11:15 Sunny 82 28 70 21 66 66 SSE 8 13 29.65 1004 10 16 0.00 0.00
11:35 am 11:35 Sunny 82 28 66 19 58 58 SSE 8 13 29.65 1004 10 16 0.00 0.00
11:55 am 11:55 Sunny 84 29 66 19 55 55 SE 9 15 29.65 1004 10 16 0.00 0.00
12:15 pm 12:15 Sunny 86 30 68 20 55 55 SSE 9 15 29.65 1004 10 16 0.00 0.00
12:35 pm 12:35 Sunny 86 30 66 19 52 52 S 9 15 29.65 1004 8 13 0.00 0.00
12:55 pm 12:55 Sunny 88 31 64 18 46 46 SSE 10 17 29.65 1004 10 16 0.00 0.00
1:15 pm 13:15 Sunny 88 31 64 18 46 46 S 8 13 29.65 1004 10 16 0.00 0.00
1:35 pm 13:35 Sunny 88 31 63 17 43 43 S 10 17 29.62 1003 10 16 0.00 0.00
1:55 pm 13:55 Sunny 88 31 64 18 46 46 SE 9 15 29.62 1003 10 16 0.00 0.00
2:15 pm 14:15 Sunny 88 31 64 18 46 46 SE 13 20 29.62 1003 10 16 0.00 0.00
2:35 pm 14:35 Sunny 90 32 64 18 43 43 SE 12 19 29.62 1003 10 16 0.00 0.00
2:55 pm 14:55 Sunny 90 32 64 18 43 43 SE 14 22 29.62 1003 10 16 0.00 0.00
3:15 pm 15:15 Sunny 88 31 64 18 46 46 SSE 12 19 29.62 1003 10 16 0.00 0.00
3:35 pm 15:35 Sunny 90 32 63 17 41 41 SE 13 20 29.62 1003 10 16 0.00 0.00
3:55 pm 15:55 Sunny 90 32 63 17 41 41 SSE 13 20 29.62 1003 10 16 0.00 0.00
4:15 pm 16:15 Sunny 90 32 63 17 41 41 SSE 13 20 29.62 1003 10 16 0.00 0.00
4:35 pm 16:35 Sunny 90 32 61 16 38 38 SSE 14 22 29.62 1003 10 16 0.00 0.00
4:55 pm 16:55 Sunny 90 32 63 17 41 41 SSE 13 20 29.62 1003 10 16 0.00 0.00
5:15 pm 17:15 Sunny 90 32 64 18 43 43 SSE 13 20 29.62 1003 10 16 0.00 0.00
5:35 pm 17:35 Sunny 90 32 64 18 43 43 SE 14 22 29.62 1003 10 16 0.00 0.00
5:55 pm 17:55 Sunny 88 31 66 19 49 49 SSE 14 22 29.62 1003 10 16 0.00 0.00
6:15 pm 18:15 Sunny 88 31 70 21 55 55 SE 16 26 29.59 1002 10 16 0.00 0.00
6:35 pm 18:35 Sunny N/A N/A N/A SE 18 30 N/A 10 16 0.00 0.00
6:55 pm 18:55 Sunny N/A N/A N/A SE 14 22 N/A 10 16 0.00 0.00
7:15 pm 19:15 Sunny 88 31 70 21 55 55 SE 12 19 29.56 1001 10 16 0.00 0.00
7:35 pm 19:35 Sunny N/A N/A N/A SE 15 24 N/A 10 16 0.00 0.00
7:55 pm 19:55 Sunny 86 30 70 21 59 59 SE 14 22 29.56 1001 10 16 0.00 0.00
8:15 pm 20:15 Sunny 84 29 72 22 66 66 SE 13 20 29.56 1001 10 16 0.00 0.00
8:35 pm 20:35 Sunny 84 29 72 22 66 66 SE 13 20 29.56 1001 10 16 0.00 0.00
8:55 pm 20:55 Sunny 82 28 72 22 70 70 ESE 12 19 29.56 1001 10 16 0.00 0.00
9:15 pm 21:15 Clear 82 28 72 22 70 70 E 10 17 29.56 1001 10 16 0.00 0.00
9:35 pm 21:35 Clear 82 28 72 22 70 70 ESE 13 20 29.56 1001 10 16 0.00 0.00
9:55 pm 21:55 Clear 82 28 72 22 70 70 SE 14 22 29.59 1002 10 16 0.00 0.00
10:15 pm 22:15 Clear 81 27 72 22 74 74 SSE 8 13 29.62 1003 10 16 0.00 0.00
10:35 pm 22:35 Clear 81 27 73 23 79 79 SSE 10 17 29.62 1003 10 16 0.00 0.00
10:55 pm 22:55 Clear 81 27 73 23 79 79 NW 7 11 29.62 1003 10 16 0.00 0.00
11:15 pm 23:15 Mostly Clear 73 23 64 18 74 74 NE 13 20 29.65 1004 10 16 0.00 0.00
11:35 pm 23:35 Clear N/A N/A N/A E 10 17 N/A 10 16 0.00 0.00
11:55 pm 23:55 Clear N/A N/A N/A ESE 13 20 N/A 10 16 0.00 0.00

Powered by AerisWeather